Regional Weather Roundup
Issued by NWS

Home | Current Version | Previous Version | Text Only | Print | Product List | Glossary On
Versions: 1 2 3 4 5 6 7 8 9 10 11 12 13 14 15 16 17 18 19 20 21 22 23 24 25 26 27 28 29 30 31 32 33 34 35 36 37 38 39 40 41 42 43 44 45 46 47 48 49 50
000
ASUS45 KSLC 271010
RWRUT

UTAH REGIONAL WEATHER ROUNDUP
NATIONAL WEATHER SERVICE SALT LAKE CITY UT
400 AM MDT FRI MAR 27 2015

UTZ001>011-023>025-271100-

NORTHERN UTAH

CITY           SKY/WX    TMP DP  RH WIND       PRES   REMARKS
BRIGHAM CITY   CLEAR     38  33  81 CALM      30.34F
HILL AFB       CLEAR     43  28  56 E14       30.33F
LOGAN          CLEAR     36  31  82 CALM      30.34S
OGDEN          CLEAR     42  29  59 S9        30.32F
PROVO AIRPORT  CLEAR     37  28  70 CALM      30.35F
SALT LAKE CITY CLEAR     43  30  60 SE6       30.32F
VERNAL         PTCLDY    47  24  40 SW7       30.28F
WENDOVER       CLEAR     39  23  52 CALM      30.32S
HEBER CITY     CLEAR     30  27  86 E5        30.37F WCI  25
WEST JORDAN    CLEAR     43  30  61 S5        30.33F

$$

UTZ012>022-026-027-271100-

SOUTHERN/CENTRAL UTAH

CITY           SKY/WX    TMP DP  RH WIND       PRES   REMARKS
BLANDING       CLEAR     45  20  37 CALM      30.37S
BRYCE CANYON   CLEAR     27  23  85 W3        30.40F
CEDAR CITY     CLEAR     31  24  75 CALM      30.33F
DELTA          CLEAR     35  25  66 E3        30.33F
HANKSVILLE     CLEAR     34  18  51 CALM      30.29F
MILFORD        CLEAR     33  21  61 S5        30.33F WCI  29
MOAB/CYNLANDS  CLEAR     34  13  41 CALM      30.26S
PRICE          CLEAR     40  21  46 N6        30.31S
ST GEORGE      SUNNY     54  27  35 CALM      30.25S
KANAB          CLEAR     36  27  69 NE7       30.33F WCI  30

$$

REGIONAL REPORTS     COLORADO/ARIZONA

CITY           SKY/WX    TMP DP  RH WIND       PRES   REMARKS
CRAIG, CO      CLEAR     28  25  88 CALM      30.33S
GRAND JUNCTION CLEAR     38  22  52 SE12      30.29S WCI  30
RIFLE          CLEAR     34  23  64 E3        30.33S
MONTROSE       CLEAR     34  23  64 S8        30.34S WCI  27
CORTEZ         CLEAR     30  18  60 E8        30.32F WCI  22
PAGE, AZ       CLEAR     49  20  31 CALM      30.26F
GRAND CANYON   PTCLDY    26  17  68 E3        30.37S
KINGMAN        CLEAR     44  25  47 CALM      30.20F
FLAGSTAFF      CLEAR     27  16  63 E3        30.36F

$$

REGIONAL REPORTS    NEVADA/IDAHO/WYOMING

CITY           SKY/WX    TMP DP  RH WIND       PRES   REMARKS
LAS VEGAS, NV  CLEAR     62  27  26 S8        30.12F
ELY            CLEAR     32  20  61 S12       30.36F WCI  23
ELKO           CLEAR     33  26  75 W3        30.31S
POCATELLO, ID  CLEAR     33  29  85 W7        30.31F WCI  27
BURLEY         CLEAR     35  32  88 CALM      30.28F
EVANSTON, WY   PTCLDY    33  25  72 SW8       30.37F WCI  26
ROCK SPRINGS   CLEAR     38  28  67 W21       30.30F WCI  28
KEMMERER       PTCLDY    32  30  93 W5        30.36S WCI  27

$$



USA.gov is the U.S. government's official web portal to all federal, state and local government web resources and services.